Terminal Aerodrome Forecast
Issued by NWS

Home | Current Version | Previous Version | Text Only | Print | Product List | Glossary On
Versions: 1 2 3 4 5 6 7 8 9 10 11 12 13 14 15 16 17 18 19 20
000
FTUS41 KILN 031100
TAFLCK
TAF
KLCK 031133Z 0312/0412 06005KT P6SM OVC025
     FM031600 10006KT P6SM BKN035
     FM032300 12004KT P6SM BKN050
     FM040900 13003KT P6SM BKN100=

USA.gov is the U.S. government's official web portal to all federal, state and local government web resources and services.